Flag for Hong Kong

Past Weather in 22°14'52"N, 114°12'10"E, Hong Kong — Yesterday and Last 2 Weeks

Now
86 °F

Passing clouds.


Feels Like: 97 °F
Forecast: 90 / 83 °F
Wind: 12 mph from Southwest

Location: Hong Kong International Airport

Current Time: Jul 6, 2020 at 1:49:14 am

Latest Report: Jul 6, 2020 at 1:00 am


Visibility: N/A

Pressure: 29.71 "Hg

Humidity: 75%

Dew Point: 77 °F

Location of 22°14'52"N, 114°12'10"ELocation

Past Weather in 22°14'52"N, 114°12'10"E — Graph

°F

22°14'52"N, 114°12'10"E Temperature Yesterday

Maximum temperature yesterday: 91 °F (at 12:30 pm)
Minimum temperature yesterday: 82 °F (at 9:00 am)
Average temperature yesterday: 87 °F

High & Low Weather Summary for the Past Weeks

 TemperatureHumidityPressure
High93 °F (Jun 23, 2:30 pm)89% (Jun 28, 7:12 am)29.83 "Hg (Jun 28, 7:12 am)
Low81 °F (Jun 28, 6:00 am)53% (Jun 27, 10:00 am)29.59 "Hg (Jul 1, 4:30 pm)
Average87 °F72%29.72 "Hg
* Reported Jun 21 12:00 am — Jul 6 12:30 am, 22°14'52"N, 114°12'10"E. Weather by CustomWeather, © 2020

Note: Actual official high and low records may vary slightly from our data, if they occured in-between our weather recording intervals... More about our weather records

22°14'52"N, 114°12'10"E Weather History for the Previous 24 Hours

Scroll right to see more
 ConditionsComfort  
Time TempWeatherWind HumidityBarometerVisibility
12:30 am
Mon, Jul 6
86 °FPassing clouds.9 mph75%29.71 "HgN/A
12:00 am86 °FPassing clouds.8 mph70%29.71 "HgN/A
11:30 pm
Sun, Jul 5
86 °FPassing clouds.10 mph70%29.71 "HgN/A
11:00 pm86 °FPassing clouds.9 mph70%29.74 "HgN/A
10:30 pm86 °FPassing clouds.8 mph75%29.71 "HgN/A
10:00 pm86 °FPassing clouds.10 mph70%29.71 "HgN/A
9:30 pm86 °FPassing clouds.9 mph75%29.71 "HgN/A
8:30 pm86 °FPassing clouds.10 mph70%29.71 "HgN/A
8:00 pm86 °FPassing clouds.12 mph70%29.71 "HgN/A
7:30 pm86 °FPassing clouds.8 mph70%29.71 "HgN/A
7:00 pm86 °FPassing clouds.12 mph70%29.71 "HgN/A
6:30 pm88 °FPassing clouds.9 mph66%29.68 "HgN/A
6:00 pm88 °FPassing clouds.12 mph66%29.68 "HgN/A
5:30 pm88 °FPassing clouds.14 mph66%29.68 "HgN/A
5:00 pm90 °FPassing clouds.15 mph63%29.68 "HgN/A
4:30 pm91 °FPassing clouds.14 mph59%29.71 "HgN/A
4:00 pm91 °FPassing clouds.13 mph59%29.71 "HgN/A
3:30 pm91 °FPassing clouds.15 mph59%29.71 "HgN/A
3:00 pm91 °FPassing clouds.14 mph59%29.71 "HgN/A
2:30 pm90 °FPassing clouds.15 mph63%29.71 "HgN/A
2:00 pm91 °FPassing clouds.15 mph59%29.74 "HgN/A
1:30 pm91 °FPassing clouds.14 mph59%29.71 "HgN/A
1:00 pm90 °FPassing clouds.12 mph63%29.74 "HgN/A
12:30 pm91 °FPassing clouds.15 mph63%29.74 "HgN/A
12:00 pm90 °FPassing clouds.14 mph63%29.74 "HgN/A
11:30 am90 °FPassing clouds.10 mph67%29.77 "HgN/A
11:00 am90 °FPassing clouds.6 mph63%29.77 "HgN/A
10:30 am88 °FPassing clouds.7 mph66%29.77 "HgN/A
10:00 am86 °FPassing clouds.9 mph75%29.77 "HgN/A
9:30 am86 °FScattered showers. Scattered clouds.7 mph75%29.77 "HgN/A
9:00 am82 °FSprinkles. Scattered clouds.13 mph84%29.77 "HgN/A
8:30 am84 °FScattered showers. Scattered clouds.14 mph79%29.77 "HgN/A
8:00 am84 °FSprinkles. Scattered clouds.8 mph79%29.80 "HgN/A
7:30 am86 °FPassing clouds.7 mph75%29.80 "HgN/A
7:00 am84 °FPassing clouds.7 mph79%29.77 "HgN/A
6:30 am84 °FPassing clouds.8 mph79%29.77 "HgN/A
6:00 am84 °FPassing clouds.8 mph79%29.77 "HgN/A
5:30 am84 °FPassing clouds.6 mph84%29.74 "HgN/A
5:00 am84 °FPassing clouds.8 mph79%29.77 "HgN/A
4:30 am84 °FPassing clouds.3 mph84%29.77 "HgN/A
4:00 am84 °FPassing clouds.7 mph79%29.74 "HgN/A
3:30 am84 °FPassing clouds.7 mph79%29.74 "HgN/A
3:00 am84 °FPassing clouds.3 mph79%29.74 "HgN/A
2:30 am84 °FPassing clouds.9 mph79%29.74 "HgN/A
2:00 am84 °FPassing clouds.6 mph84%29.77 "HgN/A
1:30 am84 °FPassing clouds.5 mph79%29.77 "HgN/A
1:00 am84 °FPassing clouds.6 mph84%29.77 "HgN/A
Weather by CustomWeather, © 2020

See weather overview